User: anonymous   Login
Location: ???????
(55.4362°N, 38.1183°E)
Time: 11:53:49
(UTC+00:00)
Language:

SJ 16-02 - Orbit

View from above orbital plane
View from above orbital plane
View from above satellite
View from above satellite

Ground track
Ground track

The orbit data is extracted from the following two-line orbital elements,

1 41634U 16043A   21271.12637735  .00000128  00000-0  17850-4 0  9995
2 41634  75.0016 278.1827 0008893 251.1867 108.8346 14.85846570284699
Epoch (UTC): 28 September 2021 03:01:59
Eccentricity: 0.0008893
inclination: 75.0016°
perigee height: 605 km
apogee height: 617 km
right ascension of ascending node: 278.1827°
argument of perigee: 251.1867°
revolutions per day: 14.85846570
mean anomaly at epoch: 108.8346°
orbit number at epoch: 28469

The dashed part of the orbit path shows where the satellite is in the earth's shadow,  

DLR